Location: Columbia
(38.9520°N, 92.3340°W)
Time: 02:01:49
(UTC-05:00)

FENGYUN 3A - Visible Passes

Search period start: 30 July 2014 00:00
Search period end: 09 August 2014 00:00
Orbit: 819 x 835 km, 98.6° (Epoch: 29 July)

Date Brightness Start Highest point End Pass type
(mag) Time Alt. Az. Time Alt. Az. Time Alt. Az.
30 Jul 3.6 21:50:46 20° SSE 21:54:32 73° ENE 21:59:53 10° N visible
30 Jul 6.1 23:32:59 10° WSW 23:35:17 13° W 23:37:35 10° WNW visible
31 Jul 4.0 21:31:54 16° SE 21:35:54 49° ENE 21:41:03 10° N visible
31 Jul 5.7 23:13:24 13° SW 23:16:22 20° W 23:20:11 10° NW visible
01 Aug 4.5 21:13:01 12° SE 21:17:19 34° ENE 21:22:04 10° N visible
01 Aug 5.2 22:54:32 18° SW 22:57:31 29° W 23:02:08 10° NW visible
02 Aug 5.0 20:54:39 10° ESE 20:58:46 23° ENE 21:02:54 10° NNE visible
02 Aug 4.5 22:35:40 22° SSW 22:38:42 43° W 22:43:48 10° NNW visible
03 Aug 3.9 22:16:47 25° S 22:19:57 65° WSW 22:25:17 10° NNW visible
04 Aug 3.6 21:57:55 24° SSE 22:01:15 85° ENE 22:06:37 10° NNW visible
04 Aug 6.2 23:41:04 10° W 23:42:06 11° W 23:43:07 10° WNW visible
05 Aug 3.8 21:39:03 21° SE 21:42:35 57° ENE 21:47:49 10° N visible
05 Aug 5.9 23:20:34 12° SW 23:23:10 17° W 23:26:31 10° NW visible
06 Aug 4.3 21:20:11 16° SE 21:23:58 39° ENE 21:28:54 10° N visible
06 Aug 5.4 23:01:42 18° SW 23:04:17 25° W 23:08:38 10° NW visible
07 Aug 4.8 21:01:20 11° ESE 21:05:25 27° ENE 21:09:49 10° N visible
07 Aug 4.8 22:42:50 23° SSW 22:45:27 37° W 22:50:24 10° NNW visible
08 Aug 5.2 20:43:20 10° ESE 20:46:55 19° ENE 20:50:30 10° NNE visible
08 Aug 4.1 22:23:58 28° SSW 22:26:41 56° W 22:31:56 10° NNW visible
